Location: Home
(42.5358°N, 72.7383°W)
Time: 05:28:36
(UTC-05:00)

Transit 4A - Pass Details

Date: 04 December 2021
Orbit: 863 x 981 km, 66.8° (Epoch: 25 January)

Event Time Altitude Azimuth Distance (km) Brightness Sun altitude
Exits shadow 05:15:41 29° 258° (WSW) 1,687 8.7 -19.4°
Maximum altitude 05:16:03 30° 252° (WSW) 1,682 8.8 -19.3°
Drops below altitude 10° 05:21:25 10° 194° (SSW) 2,720 10.3 -18.4°
Sets 05:24:18 0° 184° (S) 3,667 11.1 -17.9°
